GW1554 Weather Reports


Display with metric or nautical units.
time (UTC)temp
F
wind
direction
speed
MPH
gust
MPH
rain 1hr
in
rain 24hr
in
rain mn
in
humidity
%
barometer
mb
20260906174501 80 1 0.0 1.0 0.00 0.00 0.00 77 1021.3
20260906173100 81 277 0.0 1.0 0.00 0.00 0.00 76 1021.4
20260906171603 83 269 1.0 2.0 0.00 0.00 0.00 73 1021.3
20260906170059 83 243 0.0 2.0 0.00 0.00 0.00 73 1021.3
20260906164559 85 241 0.0 1.0 0.00 0.00 0.00 70 1021.3
20260906163101 84 206 1.0 3.0 0.00 0.00 0.00 71 1021.4
20260906161558 85 184 0.0 4.0 0.00 0.00 0.00 72 1021.4
20260906160109 85 130 0.0 3.0 0.00 0.00 0.00 71 1021.1
20260906154600 85 219 1.0 5.0 0.00 0.00 0.00 71 1021.1
20260906153100 85 116 1.0 4.0 0.00 0.00 0.00 70 1021.1
20260906151557 86 129 2.0 4.0 0.00 0.00 0.00 70 1021.0
20260906150059 86 143 2.0 4.0 0.00 0.00 0.00 70 1021.1
20260906144554 85 221 2.0 7.0 0.00 0.00 0.00 71 1021.2
20260906143053 86 134 2.0 5.0 0.00 0.00 0.00 71 1021.2
20260906141554 85 133 2.0 6.0 0.00 0.00 0.00 72 1021.2
20260906140052 85 198 2.0 5.0 0.00 0.00 0.00 72 1021.2
20260906134558 85 274 2.0 5.0 0.00 0.00 0.00 73 1021.3
20260906133109 85 248 2.0 6.0 0.00 0.00 0.00 73 1021.5
20260906131550 85 248 0.0 5.0 0.00 0.00 0.00 74 1021.5
20260906130050 85 212 1.0 6.0 0.00 0.00 0.00 74 1021.7
20260906124550 84 188 3.0 6.0 0.00 0.00 0.00 74 1021.7
20260906123049 84 101 3.0 9.0 0.00 0.00 0.00 75 1021.7
20260906121547 85 129 3.0 8.0 0.00 0.00 0.00 74 1021.7
20260906120047 84 145 3.0 8.0 0.00 0.00 0.00 75 1021.6
20260906114559 86 213 1.0 6.0 0.00 0.00 0.00 72 1021.7
20260906113045 84 221 1.0 5.0 0.00 0.00 0.00 74 1021.7
20260906111544 84 116 1.0 6.0 0.00 0.00 0.00 74 1021.8
20260906110040 83 109 3.0 8.0 0.00 0.00 0.00 75 1021.7
20260906104542 83 225 1.0 6.0 0.00 0.00 0.00 76 1021.8
20260906103038 83 218 1.0 6.0 0.00 0.00 0.00 75 1021.7
20260906101536 83 108 1.0 7.0 0.00 0.00 0.00 74 1021.7
20260906100040 83 219 1.0 7.0 0.00 0.00 0.00 72 1021.7
20260906094536 83 102 1.0 4.0 0.00 0.00 0.00 72 1021.7
20260906093031 83 278 3.0 6.0 0.00 0.00 0.00 66 1021.9
20260906091534 83 146 1.0 4.0 0.00 0.00 0.00 62 1021.9
20260906090027 82 173 0.0 3.0 0.00 0.00 0.00 63 1021.8
20260906084525 83 233 0.0 2.0 0.00 0.00 0.00 61 1021.7
20260906083021 81 281 0.0 4.0 0.00 0.00 0.00 60 1021.7
20260906081519 81 163 1.0 4.0 0.00 0.00 0.00 62 1021.5
20260906080015 80 176 0.0 3.0 0.00 0.00 0.00 72 1021.4
20260906074512 79 263 0.0 2.0 0.00 0.00 0.00 75 1021.3
20260906073017 78 84 1.0 3.0 0.00 0.00 0.00 74 1021.2
20260906071506 77 126 0.0 3.0 0.00 0.00 0.00 77 1021.2
20260906070104 76 78 0.0 2.0 0.00 0.00 0.00 82 1021.1
20260906064602 76 94 1.0 3.0 0.00 0.00 0.00 80 1021.0
20260906063058 74 358 0.0 1.0 0.00 0.00 0.00 79 1021.1
20260906061558 73 4 0.0 2.0 0.00 0.00 0.00 83 1021.2
20260906060053 72 2 0.0 4.0 0.00 0.00 0.00 83 1021.0
20260906054604 71 316 0.0 3.0 0.00 0.00 0.00 84 1020.8
20260906053054 70 321 2.0 4.0 0.00 0.00 0.00 86 1020.8
20260906051549 69 289 0.0 2.0 0.00 0.00 0.00 88 1020.7
20260906050108 70 345 0.0 2.0 0.00 0.00 0.00 86 1020.3
20260906044546 70 321 0.0 4.0 0.00 0.00 0.00 82 1020.1
20260906043046 69 329 2.0 4.0 0.00 0.00 0.00 84 1020.1
20260906041544 70 286 1.0 2.0 0.00 0.00 0.00 85 1020.1
20260906040043 70 287 1.0 3.0 0.00 0.00 0.00 83 1020.1
20260906034544 70 245 0.0 2.0 0.00 0.00 0.00 81 1020.1
20260906033051 71 342 0.0 2.0 0.00 0.00 0.00 76 1019.7
20260906031539 71 346 1.0 5.0 0.00 0.00 0.00 76 1019.6
20260906030039 70 307 1.0 3.0 0.00 0.00 0.00 80 1019.4
20260906024537 70 333 1.0 3.0 0.00 0.00 0.00 86 1019.4
20260906023032 70 13 0.0 2.0 0.00 0.00 0.00 91 1019.5
20260906021529 70 308 1.0 3.0 0.00 0.00 0.00 91 1019.6
20260906020031 71 352 1.0 3.0 0.00 0.00 0.00 90 1019.8
20260906014533 71 331 2.0 5.0 0.00 0.00 0.00 90 1019.7
20260906013028 71 17 1.0 7.0 0.00 0.00 0.00 90 1019.8
20260906011522 72 20 3.0 5.0 0.00 0.00 0.00 90 1019.8
20260906010020 72 302 1.0 3.0 0.00 0.00 0.00 91 1019.8
20260906004519 72 7 0.0 2.0 0.00 0.00 0.00 91 1019.8
20260906003019 72 16 0.0 1.0 0.00 0.00 0.00 92 1019.9
20260906001518 72 15 0.0 0.0 0.00 0.00 0.00 92 1019.9
20260906000017 72 15 0.0 2.0 0.00 0.00 0.00 92 1019.9
20260905234515 72 4 0.0 1.0 0.00 0.00 0.00 91 1019.9
20260905233016 73 5 0.0 2.0 0.00 0.00 0.00 90 1019.8
20260905231510 73 323 0.0 1.0 0.00 0.00 0.00 89 1019.9
20260905230007 72 321 1.0 4.0 0.00 0.00 0.00 90 1019.9
20260905224505 72 323 0.0 3.0 0.00 0.00 0.00 89 1019.6
20260905223005 72 335 1.0 6.0 0.00 0.00 0.00 90 1019.6
20260905221504 72 343 1.0 7.0 0.00 0.00 0.00 90 1019.4
20260905220057 73 3 1.0 5.0 0.00 0.00 0.00 89 1019.5
20260905214558 72 356 1.0 3.0 0.00 0.00 0.00 89 1019.6
20260905213057 72 357 0.0 2.0 0.00 0.00 0.00 89 1019.6
20260905211602 72 284 0.0 2.0 0.00 0.00 0.00 90 1019.7
20260905210057 72 310 0.0 2.0 0.00 0.00 0.00 90 1019.5
20260905204554 71 286 0.0 2.0 0.00 0.00 0.00 90 1019.5
20260905203100 72 352 0.0 4.0 0.00 0.00 0.00 91 1019.4
20260905201555 72 2 0.0 1.0 0.00 0.00 0.00 93 1019.3
20260905200101 73 353 0.0 1.0 0.00 0.00 0.00 93 1019.4
20260905194551 73 350 0.0 0.0 0.00 0.00 0.00 93 1019.4
20260905193106 73 355 0.0 1.0 0.00 0.00 0.00 93 1019.2
20260905191548 73 212 0.0 0.0 0.00 0.00 0.00 94 1018.9
20260905190048 74 212 0.0 0.0 0.00 0.00 0.00 94 1019.0
20260905184547 74 155 0.0 1.0 0.00 0.00 0.00 93 1018.8
20260905183051 74 131 0.0 1.0 0.00 0.00 0.00 93 1018.6
20260905181546 74 213 0.0 3.0 0.00 0.00 0.00 93 1018.5
20260905180045 75 220 0.0 3.0 0.00 0.00 0.00 92 1018.6
20260905174546 75 221 2.0 5.0 0.00 0.00 0.00 91 1018.5